Location: Fort Wayne
(41.1310°N, 85.1290°W)
Time: 00:54:46
(UTC-04:00)

ISS - Visible Passes

Search period start: 24 August 2017 00:00
Search period end: 03 September 2017 00:00
Orbit: 401 x 408 km, 51.6° (Epoch: 24 August)

Date Brightness Start Highest point End Pass type
(mag) Time Alt. Az. Time Alt. Az. Time Alt. Az.
30 Aug -1.1 06:31:06 10° S 06:33:08 15° SE 06:35:09 10° E visible
01 Sep -2.5 06:21:33 10° SSW 06:24:36 36° SE 06:27:39 10° ENE visible
02 Sep -1.6 05:31:01 15° SSE 05:32:21 19° SE 05:34:47 10° E visible
